Year,Month,Day,Hour,Minute,Value (Times are PST for temperature in C)
2010,07,03,00,00,15.60
2010,07,03,00,01,15.60
2010,07,03,00,02,15.60
2010,07,03,00,03,15.60
2010,07,03,00,04,15.60
2010,07,03,00,05,15.60
2010,07,03,00,06,15.60
2010,07,03,00,07,15.60
2010,07,03,00,08,15.60
2010,07,03,00,09,15.50
2010,07,03,00,10,15.50
2010,07,03,00,11,15.50
2010,07,03,00,12,15.50
2010,07,03,00,13,15.50
2010,07,03,00,14,15.50
2010,07,03,00,15,15.50
2010,07,03,00,16,15.50
2010,07,03,00,17,15.40
2010,07,03,00,18,15.40
2010,07,03,00,19,15.40
2010,07,03,00,20,15.40
2010,07,03,00,21,15.40
2010,07,03,00,22,15.30
2010,07,03,00,23,15.30
2010,07,03,00,24,15.30
2010,07,03,00,25,15.30
2010,07,03,00,26,15.30
2010,07,03,00,27,15.20
2010,07,03,00,28,15.20
2010,07,03,00,29,15.20
2010,07,03,00,30,15.20
2010,07,03,00,31,15.10
2010,07,03,00,32,15.10
2010,07,03,00,33,15.10
2010,07,03,00,34,15.00
2010,07,03,00,35,15.00
2010,07,03,00,36,15.00
2010,07,03,00,37,15.00
2010,07,03,00,38,15.00
2010,07,03,00,39,15.00
2010,07,03,00,40,15.00
2010,07,03,00,41,15.00
2010,07,03,00,42,14.90
2010,07,03,00,43,14.90
2010,07,03,00,44,14.90
2010,07,03,00,45,14.80
2010,07,03,00,46,14.80
2010,07,03,00,47,14.70
2010,07,03,00,48,14.70
2010,07,03,00,49,14.70
2010,07,03,00,50,14.60
2010,07,03,00,51,14.60
2010,07,03,00,52,14.50
2010,07,03,00,53,14.50
2010,07,03,00,54,14.40
2010,07,03,00,55,14.40
2010,07,03,00,56,14.40
2010,07,03,00,57,14.40
2010,07,03,00,58,14.30
2010,07,03,00,59,14.30
2010,07,03,01,00,14.30
2010,07,03,01,01,14.30
2010,07,03,01,02,14.30
2010,07,03,01,03,14.30
2010,07,03,01,04,14.30
2010,07,03,01,05,14.20
2010,07,03,01,06,14.20
2010,07,03,01,07,14.20
2010,07,03,01,08,14.20
2010,07,03,01,09,14.20
2010,07,03,01,10,14.20
2010,07,03,01,11,14.20
2010,07,03,01,12,14.20
2010,07,03,01,13,14.10
2010,07,03,01,14,14.10
2010,07,03,01,15,14.00
2010,07,03,01,16,14.00
2010,07,03,01,17,14.00
2010,07,03,01,18,13.90
2010,07,03,01,19,13.90
2010,07,03,01,20,13.80
2010,07,03,01,21,13.80
2010,07,03,01,22,13.80
2010,07,03,01,23,13.70
2010,07,03,01,24,13.70
2010,07,03,01,25,13.70
2010,07,03,01,26,13.60
2010,07,03,01,27,13.60
2010,07,03,01,28,13.50
2010,07,03,01,29,13.50
2010,07,03,01,30,13.50
2010,07,03,01,31,13.50
2010,07,03,01,32,13.40
2010,07,03,01,33,13.40
2010,07,03,01,34,13.40
2010,07,03,01,35,13.40
2010,07,03,01,36,13.40
2010,07,03,01,37,13.40
2010,07,03,01,38,13.40
2010,07,03,01,39,13.40
2010,07,03,01,40,13.40
2010,07,03,01,41,13.40
2010,07,03,01,42,13.40
2010,07,03,01,43,13.40
2010,07,03,01,44,13.40
2010,07,03,01,45,13.40
2010,07,03,01,46,13.40
2010,07,03,01,47,13.40
2010,07,03,01,48,13.40
2010,07,03,01,49,13.30
2010,07,03,01,50,13.30
2010,07,03,01,51,13.30
2010,07,03,01,52,13.30
2010,07,03,01,53,13.30
2010,07,03,01,54,13.30
2010,07,03,01,55,13.30
2010,07,03,01,56,13.30
2010,07,03,01,57,13.30
2010,07,03,01,58,13.20
2010,07,03,01,59,13.20
2010,07,03,02,00,13.20
2010,07,03,02,01,13.20
2010,07,03,02,02,13.20
2010,07,03,02,03,13.20
2010,07,03,02,04,13.20
2010,07,03,02,05,13.20
2010,07,03,02,06,13.20
2010,07,03,02,07,13.20
2010,07,03,02,08,13.20
2010,07,03,02,09,13.20
2010,07,03,02,10,13.30
2010,07,03,02,11,13.30
2010,07,03,02,12,13.30
2010,07,03,02,13,13.30
2010,07,03,02,14,13.30
2010,07,03,02,15,13.30
2010,07,03,02,16,13.30
2010,07,03,02,17,13.30
2010,07,03,02,18,13.30
2010,07,03,02,19,13.20
2010,07,03,02,20,13.20
2010,07,03,02,21,13.20
2010,07,03,02,22,13.20
2010,07,03,02,23,13.20
2010,07,03,02,24,13.20
2010,07,03,02,25,13.20
2010,07,03,02,26,13.20
2010,07,03,02,27,13.20
2010,07,03,02,28,13.10
2010,07,03,02,29,13.10
2010,07,03,02,30,13.10
2010,07,03,02,31,13.10
2010,07,03,02,32,13.10
2010,07,03,02,33,13.10
2010,07,03,02,34,13.00
2010,07,03,02,35,13.00
2010,07,03,02,36,12.90
2010,07,03,02,37,12.90
2010,07,03,02,38,12.90
2010,07,03,02,39,12.90
2010,07,03,02,40,12.80
2010,07,03,02,41,12.80
2010,07,03,02,42,12.80
2010,07,03,02,43,12.70
2010,07,03,02,44,12.70
2010,07,03,02,45,12.70
2010,07,03,02,46,12.70
2010,07,03,02,47,12.70
2010,07,03,02,48,12.60
2010,07,03,02,49,12.60
2010,07,03,02,50,12.60
2010,07,03,02,51,12.50
2010,07,03,02,52,12.50
2010,07,03,02,53,12.50
2010,07,03,02,54,12.50
2010,07,03,02,55,12.50
2010,07,03,02,56,12.40
2010,07,03,02,57,12.40
2010,07,03,02,58,12.40
2010,07,03,02,59,12.40
2010,07,03,03,00,12.30
2010,07,03,03,01,12.30
2010,07,03,03,02,12.30
2010,07,03,03,03,12.20
2010,07,03,03,04,12.20
2010,07,03,03,05,12.10
2010,07,03,03,06,12.10
2010,07,03,03,07,12.10
2010,07,03,03,08,12.10
2010,07,03,03,09,12.10
2010,07,03,03,10,12.10
2010,07,03,03,11,12.10
2010,07,03,03,12,12.10
2010,07,03,03,13,12.00
2010,07,03,03,14,12.00
2010,07,03,03,15,12.00
2010,07,03,03,16,12.00
2010,07,03,03,17,12.00
2010,07,03,03,18,12.00
2010,07,03,03,19,11.90
2010,07,03,03,20,11.90
2010,07,03,03,21,11.90
2010,07,03,03,22,11.90
2010,07,03,03,23,11.90
2010,07,03,03,24,11.90
2010,07,03,03,25,11.90
2010,07,03,03,26,11.90
2010,07,03,03,27,11.90
2010,07,03,03,28,11.90
2010,07,03,03,29,11.90
2010,07,03,03,30,11.90
2010,07,03,03,31,11.90
2010,07,03,03,32,11.90
2010,07,03,03,33,11.90
2010,07,03,03,34,11.90
2010,07,03,03,35,11.90
2010,07,03,03,36,11.90
2010,07,03,03,37,11.90
2010,07,03,03,38,11.80
2010,07,03,03,39,11.80
2010,07,03,03,40,11.80
2010,07,03,03,41,11.80
2010,07,03,03,42,11.80
2010,07,03,03,43,11.70
2010,07,03,03,44,11.70
2010,07,03,03,45,11.70
2010,07,03,03,46,11.70
2010,07,03,03,47,11.70
2010,07,03,03,48,11.70
2010,07,03,03,49,11.70
2010,07,03,03,50,11.60
2010,07,03,03,51,11.60
2010,07,03,03,52,11.60
2010,07,03,03,53,11.60
2010,07,03,03,54,11.50
2010,07,03,03,55,11.50
2010,07,03,03,56,11.40
2010,07,03,03,57,11.40
2010,07,03,03,58,11.40
2010,07,03,03,59,11.40
2010,07,03,04,00,11.40
2010,07,03,04,01,11.40
2010,07,03,04,02,11.40
2010,07,03,04,03,11.40
2010,07,03,04,04,11.40
2010,07,03,04,05,11.40
2010,07,03,04,06,11.50
2010,07,03,04,07,11.50
2010,07,03,04,08,11.50
2010,07,03,04,09,11.60
2010,07,03,04,10,11.60
2010,07,03,04,11,11.60
2010,07,03,04,12,11.70
2010,07,03,04,13,11.70
2010,07,03,04,14,11.70
2010,07,03,04,15,11.70
2010,07,03,04,16,11.70
2010,07,03,04,17,11.70
2010,07,03,04,18,11.70
2010,07,03,04,19,11.70
2010,07,03,04,20,11.70
2010,07,03,04,21,11.70
2010,07,03,04,22,11.70
2010,07,03,04,23,11.70
2010,07,03,04,24,11.70
2010,07,03,04,25,11.70
2010,07,03,04,26,11.70
2010,07,03,04,27,11.70
2010,07,03,04,28,11.70
2010,07,03,04,29,11.60
2010,07,03,04,30,11.60
2010,07,03,04,31,11.60
2010,07,03,04,32,11.60
2010,07,03,04,33,11.60
2010,07,03,04,34,11.60
2010,07,03,04,35,11.60
2010,07,03,04,36,11.60
2010,07,03,04,37,11.60
2010,07,03,04,38,11.60
2010,07,03,04,39,11.60
2010,07,03,04,40,11.60
2010,07,03,04,41,11.60
2010,07,03,04,42,11.60
2010,07,03,04,43,11.60
2010,07,03,04,44,11.60
2010,07,03,04,45,11.60
2010,07,03,04,46,11.60
2010,07,03,04,47,11.60
2010,07,03,04,48,11.60
2010,07,03,04,49,11.60
2010,07,03,04,50,11.60
2010,07,03,04,51,11.60
2010,07,03,04,52,11.60
2010,07,03,04,53,11.70
2010,07,03,04,54,11.70
2010,07,03,04,55,11.70
2010,07,03,04,56,11.70
2010,07,03,04,57,11.70
2010,07,03,04,58,11.70
2010,07,03,04,59,11.70
2010,07,03,05,00,11.70
2010,07,03,05,01,11.70
2010,07,03,05,02,11.70
2010,07,03,05,03,11.70
2010,07,03,05,04,11.70
2010,07,03,05,05,11.70
2010,07,03,05,06,11.70
2010,07,03,05,07,11.70
2010,07,03,05,08,11.70
2010,07,03,05,09,11.70
2010,07,03,05,10,11.70
2010,07,03,05,11,11.70
2010,07,03,05,12,11.70
2010,07,03,05,13,11.70
2010,07,03,05,14,11.70
2010,07,03,05,15,11.70
2010,07,03,05,16,11.70
2010,07,03,05,17,11.70
2010,07,03,05,18,11.70
2010,07,03,05,19,11.70
2010,07,03,05,20,11.70
2010,07,03,05,21,11.70
2010,07,03,05,22,11.60
2010,07,03,05,23,11.60
2010,07,03,05,24,11.60
2010,07,03,05,25,11.50
2010,07,03,05,26,11.40
2010,07,03,05,27,11.40
2010,07,03,05,28,11.40
2010,07,03,05,29,11.40
2010,07,03,05,30,11.30
2010,07,03,05,31,11.30
2010,07,03,05,32,11.30
2010,07,03,05,33,11.20
2010,07,03,05,34,11.10
2010,07,03,05,35,11.00
2010,07,03,05,36,11.00
2010,07,03,05,37,11.00
2010,07,03,05,38,11.00
2010,07,03,05,39,11.00
2010,07,03,05,40,11.00
2010,07,03,05,41,11.00
2010,07,03,05,42,11.00
2010,07,03,05,43,11.00
2010,07,03,05,44,11.00
2010,07,03,05,45,11.00
2010,07,03,05,46,11.00
2010,07,03,05,47,11.00
2010,07,03,05,48,11.10
2010,07,03,05,49,11.10
2010,07,03,05,50,11.10
2010,07,03,05,51,11.10
2010,07,03,05,52,11.00
2010,07,03,05,53,11.00
2010,07,03,05,54,11.00
2010,07,03,05,55,11.10
2010,07,03,05,56,11.20
2010,07,03,05,57,11.20
2010,07,03,05,58,11.30
2010,07,03,05,59,11.40
2010,07,03,06,00,11.40
2010,07,03,06,01,11.50
2010,07,03,06,02,11.50
2010,07,03,06,03,11.50
2010,07,03,06,04,11.50
2010,07,03,06,05,11.40
2010,07,03,06,06,11.40
2010,07,03,06,07,11.40
2010,07,03,06,08,11.40
2010,07,03,06,09,11.40
2010,07,03,06,10,11.40
2010,07,03,06,11,11.50
2010,07,03,06,12,11.50
2010,07,03,06,13,11.50
2010,07,03,06,14,11.50
2010,07,03,06,15,11.50
2010,07,03,06,16,11.50
2010,07,03,06,17,11.50
2010,07,03,06,18,11.60
2010,07,03,06,19,11.60
2010,07,03,06,20,11.60
2010,07,03,06,21,11.60
2010,07,03,06,22,11.60
2010,07,03,06,23,11.60
2010,07,03,06,24,11.60
2010,07,03,06,25,11.70
2010,07,03,06,26,11.70
2010,07,03,06,27,11.70
2010,07,03,06,28,11.70
2010,07,03,06,29,11.70
2010,07,03,06,30,11.70
2010,07,03,06,31,11.80
2010,07,03,06,32,11.80
2010,07,03,06,33,11.80
2010,07,03,06,34,11.80
2010,07,03,06,35,11.80
2010,07,03,06,36,11.80
2010,07,03,06,37,11.80
2010,07,03,06,38,11.80
2010,07,03,06,39,11.80
2010,07,03,06,40,11.80
2010,07,03,06,41,11.80
2010,07,03,06,42,11.90
2010,07,03,06,43,11.90
2010,07,03,06,44,11.90
2010,07,03,06,45,11.90
2010,07,03,06,46,12.00
2010,07,03,06,47,12.00
2010,07,03,06,48,12.00
2010,07,03,06,49,12.00
2010,07,03,06,50,12.00
2010,07,03,06,51,12.00
2010,07,03,06,52,12.00
2010,07,03,06,53,12.10
2010,07,03,06,54,12.10
2010,07,03,06,55,12.10
2010,07,03,06,56,12.10
2010,07,03,06,57,12.10
2010,07,03,06,58,12.10
2010,07,03,06,59,12.10
2010,07,03,07,00,12.10
2010,07,03,07,01,12.20
2010,07,03,07,02,12.20
2010,07,03,07,03,12.20
2010,07,03,07,04,12.20
2010,07,03,07,05,12.20
2010,07,03,07,06,12.20
2010,07,03,07,07,12.20
2010,07,03,07,08,12.20
2010,07,03,07,09,12.20
2010,07,03,07,10,12.20
2010,07,03,07,11,12.20
2010,07,03,07,12,12.20
2010,07,03,07,13,12.20
2010,07,03,07,14,12.20
2010,07,03,07,15,12.20
2010,07,03,07,16,12.20
2010,07,03,07,17,12.20
2010,07,03,07,18,12.30
2010,07,03,07,19,12.30
2010,07,03,07,20,12.30
2010,07,03,07,21,12.30
2010,07,03,07,22,12.30
2010,07,03,07,23,12.30
2010,07,03,07,24,12.30
2010,07,03,07,25,12.30
2010,07,03,07,26,12.30
2010,07,03,07,27,12.30
2010,07,03,07,28,12.30
2010,07,03,07,29,12.30
2010,07,03,07,30,12.30
2010,07,03,07,31,12.30
2010,07,03,07,32,12.30
2010,07,03,07,33,12.30
2010,07,03,07,34,12.30
2010,07,03,07,35,12.30
2010,07,03,07,36,12.30
2010,07,03,07,37,12.30
2010,07,03,07,38,12.30
2010,07,03,07,39,12.30
2010,07,03,07,40,12.30
2010,07,03,07,41,12.30
2010,07,03,07,42,12.30
2010,07,03,07,43,12.30
2010,07,03,07,44,12.30
2010,07,03,07,45,12.30
2010,07,03,07,46,12.30
2010,07,03,07,47,12.30
2010,07,03,07,48,12.30
2010,07,03,07,49,12.30
2010,07,03,07,50,12.30
2010,07,03,07,51,12.30
2010,07,03,07,52,12.30
2010,07,03,07,53,12.30
2010,07,03,07,54,12.30
2010,07,03,07,55,12.40
2010,07,03,07,56,12.40
2010,07,03,07,57,12.40
2010,07,03,07,58,12.40
2010,07,03,07,59,12.40
2010,07,03,08,00,12.40
2010,07,03,08,01,12.40
2010,07,03,08,02,12.40
2010,07,03,08,03,12.40
2010,07,03,08,04,12.40
2010,07,03,08,05,12.40
2010,07,03,08,06,12.50
2010,07,03,08,07,12.50
2010,07,03,08,08,12.50
2010,07,03,08,09,12.60
2010,07,03,08,10,12.60
2010,07,03,08,11,12.60
2010,07,03,08,12,12.60
2010,07,03,08,13,12.60
2010,07,03,08,14,12.60
2010,07,03,08,15,12.60
2010,07,03,08,16,12.70
2010,07,03,08,17,12.70
2010,07,03,08,18,12.70
2010,07,03,08,19,12.70
2010,07,03,08,20,12.80
2010,07,03,08,21,12.80
2010,07,03,08,22,12.80
2010,07,03,08,23,12.80
2010,07,03,08,24,12.80
2010,07,03,08,25,12.80
2010,07,03,08,26,12.80
2010,07,03,08,27,12.90
2010,07,03,08,28,12.90
2010,07,03,08,29,12.90
2010,07,03,08,30,12.90
2010,07,03,08,31,12.90
2010,07,03,08,32,13.00
2010,07,03,08,33,13.00
2010,07,03,08,34,13.00
2010,07,03,08,35,13.00
2010,07,03,08,36,13.10
2010,07,03,08,37,13.10
2010,07,03,08,38,13.10
2010,07,03,08,39,13.10
2010,07,03,08,40,13.10
2010,07,03,08,41,13.10
2010,07,03,08,42,13.10
2010,07,03,08,43,13.20
2010,07,03,08,44,13.20
2010,07,03,08,45,13.20
2010,07,03,08,46,13.20
2010,07,03,08,47,13.30
2010,07,03,08,48,13.30
2010,07,03,08,49,13.30
2010,07,03,08,50,13.30
2010,07,03,08,51,13.30
2010,07,03,08,52,13.40
2010,07,03,08,53,13.40
2010,07,03,08,54,13.40
2010,07,03,08,55,13.40
2010,07,03,08,56,13.50
2010,07,03,08,57,13.50
2010,07,03,08,58,13.60
2010,07,03,08,59,13.60
2010,07,03,09,00,13.70
2010,07,03,09,01,13.70
2010,07,03,09,02,13.80
2010,07,03,09,03,13.80
2010,07,03,09,04,13.90
2010,07,03,09,05,13.90
2010,07,03,09,06,14.00
2010,07,03,09,07,14.00
2010,07,03,09,08,14.10
2010,07,03,09,09,14.20
2010,07,03,09,10,14.20
2010,07,03,09,11,14.30
2010,07,03,09,12,14.30
2010,07,03,09,13,14.30
2010,07,03,09,14,14.30
2010,07,03,09,15,14.30
2010,07,03,09,16,14.50
2010,07,03,09,17,14.60
2010,07,03,09,18,14.60
2010,07,03,09,19,14.60
2010,07,03,09,20,14.70
2010,07,03,09,21,14.70
2010,07,03,09,22,14.80
2010,07,03,09,23,14.80
2010,07,03,09,24,14.80
2010,07,03,09,25,14.80
2010,07,03,09,26,14.80
2010,07,03,09,27,14.90
2010,07,03,09,28,15.00
2010,07,03,09,29,15.00
2010,07,03,09,30,15.00
2010,07,03,09,31,15.00
2010,07,03,09,32,15.00
2010,07,03,09,33,15.00
2010,07,03,09,34,15.00
2010,07,03,09,35,15.00
2010,07,03,09,36,15.10
2010,07,03,09,37,15.20
2010,07,03,09,38,15.30
2010,07,03,09,39,15.40
2010,07,03,09,40,15.40
2010,07,03,09,41,15.40
2010,07,03,09,42,15.40
2010,07,03,09,43,15.40
2010,07,03,09,44,15.40
2010,07,03,09,45,15.40
2010,07,03,09,46,15.50
2010,07,03,09,47,15.40
2010,07,03,09,48,15.40
2010,07,03,09,49,15.50
2010,07,03,09,50,15.50
2010,07,03,09,51,15.50
2010,07,03,09,52,15.50
2010,07,03,09,53,15.50
2010,07,03,09,54,15.50
2010,07,03,09,55,15.50
2010,07,03,09,56,15.50
2010,07,03,09,57,15.50
2010,07,03,09,58,15.60
2010,07,03,09,59,15.60
2010,07,03,10,00,15.60
2010,07,03,10,01,15.70
2010,07,03,10,02,15.70
2010,07,03,10,03,15.70
2010,07,03,10,04,15.60
2010,07,03,10,05,15.50
2010,07,03,10,06,15.40
2010,07,03,10,07,15.30
2010,07,03,10,08,15.30
2010,07,03,10,09,15.30
2010,07,03,10,10,15.30
2010,07,03,10,11,15.30
2010,07,03,10,12,15.30
2010,07,03,10,13,15.40
2010,07,03,10,14,15.50
2010,07,03,10,15,15.50
2010,07,03,10,16,15.50
2010,07,03,10,17,15.40
2010,07,03,10,18,15.40
2010,07,03,10,19,15.50
2010,07,03,10,20,15.60
2010,07,03,10,21,15.60
2010,07,03,10,22,15.60
2010,07,03,10,23,15.60
2010,07,03,10,24,15.60
2010,07,03,10,25,15.60
2010,07,03,10,26,15.70
2010,07,03,10,27,15.70
2010,07,03,10,28,15.70
2010,07,03,10,29,15.70
2010,07,03,10,30,15.80
2010,07,03,10,31,15.80
2010,07,03,10,32,15.90
2010,07,03,10,33,15.90
2010,07,03,10,34,15.90
2010,07,03,10,35,15.80
2010,07,03,10,36,15.80
2010,07,03,10,37,15.70
2010,07,03,10,38,15.70
2010,07,03,10,39,15.70
2010,07,03,10,40,15.70
2010,07,03,10,41,15.80
2010,07,03,10,42,15.90
2010,07,03,10,43,15.90
2010,07,03,10,44,16.00
2010,07,03,10,45,16.00
2010,07,03,10,46,16.00
2010,07,03,10,47,16.00
2010,07,03,10,48,16.00
2010,07,03,10,49,15.90
2010,07,03,10,50,15.80
2010,07,03,10,51,15.80
2010,07,03,10,52,15.80
2010,07,03,10,53,15.80
2010,07,03,10,54,15.80
2010,07,03,10,55,15.90
2010,07,03,10,56,15.90
2010,07,03,10,57,15.80
2010,07,03,10,58,15.70
2010,07,03,10,59,15.70
2010,07,03,11,00,15.70
2010,07,03,11,01,15.70
2010,07,03,11,02,15.60
2010,07,03,11,03,15.60
2010,07,03,11,04,15.60
2010,07,03,11,05,15.50
2010,07,03,11,06,15.50
2010,07,03,11,07,15.50
2010,07,03,11,08,15.60
2010,07,03,11,09,15.60
2010,07,03,11,10,15.60
2010,07,03,11,11,15.50
2010,07,03,11,12,15.40
2010,07,03,11,13,15.40
2010,07,03,11,14,15.40
2010,07,03,11,15,15.50
2010,07,03,11,16,15.50
2010,07,03,11,17,15.60
2010,07,03,11,18,15.60
2010,07,03,11,19,15.60
2010,07,03,11,20,15.60
2010,07,03,11,21,15.60
2010,07,03,11,22,15.60
2010,07,03,11,23,15.70
2010,07,03,11,24,15.80
2010,07,03,11,25,15.80
2010,07,03,11,26,15.80
2010,07,03,11,27,15.70
2010,07,03,11,28,15.60
2010,07,03,11,29,15.50
2010,07,03,11,30,15.50
2010,07,03,11,31,15.50
2010,07,03,11,32,15.60
2010,07,03,11,33,15.60
2010,07,03,11,34,15.70
2010,07,03,11,35,15.80
2010,07,03,11,36,15.80
2010,07,03,11,37,15.80
2010,07,03,11,38,15.80
2010,07,03,11,39,15.80
2010,07,03,11,40,15.80
2010,07,03,11,41,15.90
2010,07,03,11,42,15.90
2010,07,03,11,43,15.90
2010,07,03,11,44,15.90
2010,07,03,11,45,15.90
2010,07,03,11,46,15.90
2010,07,03,11,47,15.80
2010,07,03,11,48,15.80
2010,07,03,11,49,15.90
2010,07,03,11,50,15.90
2010,07,03,11,51,15.90
2010,07,03,11,52,15.90
2010,07,03,11,53,15.90
2010,07,03,11,54,15.90
2010,07,03,11,55,16.00
2010,07,03,11,56,16.00
2010,07,03,11,57,16.10
2010,07,03,11,58,16.00
2010,07,03,11,59,15.90
2010,07,03,12,00,15.80
2010,07,03,12,01,15.70
2010,07,03,12,02,15.70
2010,07,03,12,03,15.80
2010,07,03,12,04,15.90
2010,07,03,12,05,16.00
2010,07,03,12,06,16.10
2010,07,03,12,07,16.10
2010,07,03,12,08,16.10
2010,07,03,12,09,16.00
2010,07,03,12,10,16.10
2010,07,03,12,11,16.20
2010,07,03,12,12,16.20
2010,07,03,12,13,16.20
2010,07,03,12,14,16.10
2010,07,03,12,15,16.10
2010,07,03,12,16,16.10
2010,07,03,12,17,16.00
2010,07,03,12,18,15.90
2010,07,03,12,19,15.90
2010,07,03,12,20,15.90
2010,07,03,12,21,15.90
2010,07,03,12,22,15.90
2010,07,03,12,23,15.90
2010,07,03,12,24,16.00
2010,07,03,12,25,16.00
2010,07,03,12,26,16.00
2010,07,03,12,27,16.00
2010,07,03,12,28,16.00
2010,07,03,12,29,16.00
2010,07,03,12,30,16.10
2010,07,03,12,31,16.20
2010,07,03,12,32,16.20
2010,07,03,12,33,16.30
2010,07,03,12,34,16.40
2010,07,03,12,35,16.60
2010,07,03,12,36,16.50
2010,07,03,12,37,16.40
2010,07,03,12,38,16.30
2010,07,03,12,39,16.30
2010,07,03,12,40,16.40
2010,07,03,12,41,16.50
2010,07,03,12,42,16.40
2010,07,03,12,43,16.40
2010,07,03,12,44,16.40
2010,07,03,12,45,16.40
2010,07,03,12,46,16.40
2010,07,03,12,47,16.40
2010,07,03,12,48,16.40
2010,07,03,12,49,16.40
2010,07,03,12,50,16.50
2010,07,03,12,51,16.60
2010,07,03,12,52,16.60
2010,07,03,12,53,16.70
2010,07,03,12,54,16.70
2010,07,03,12,55,16.70
2010,07,03,12,56,16.70
2010,07,03,12,57,16.60
2010,07,03,12,58,16.60
2010,07,03,12,59,16.50
2010,07,03,13,00,16.50
2010,07,03,13,01,16.60
2010,07,03,13,02,16.60
2010,07,03,13,03,16.70
2010,07,03,13,04,16.70
2010,07,03,13,05,16.80
2010,07,03,13,06,16.80
2010,07,03,13,07,16.80
2010,07,03,13,08,16.70
2010,07,03,13,09,16.70
2010,07,03,13,10,16.70
2010,07,03,13,11,16.80
2010,07,03,13,12,16.90
2010,07,03,13,13,16.90
2010,07,03,13,14,16.80
2010,07,03,13,15,16.80
2010,07,03,13,16,16.90
2010,07,03,13,17,16.90
2010,07,03,13,18,17.00
2010,07,03,13,19,17.10
2010,07,03,13,20,17.20
2010,07,03,13,21,17.20
2010,07,03,13,22,17.10
2010,07,03,13,23,17.00
2010,07,03,13,24,17.00
2010,07,03,13,25,17.10
2010,07,03,13,26,17.10
2010,07,03,13,27,17.20
2010,07,03,13,28,17.20
2010,07,03,13,29,17.30
2010,07,03,13,30,17.30
2010,07,03,13,31,17.40
2010,07,03,13,32,17.30
2010,07,03,13,33,17.30
2010,07,03,13,34,17.30
2010,07,03,13,35,17.30
2010,07,03,13,36,17.30
2010,07,03,13,37,17.20
2010,07,03,13,38,17.10
2010,07,03,13,39,17.10
2010,07,03,13,40,17.10
2010,07,03,13,41,17.10
2010,07,03,13,42,17.00
2010,07,03,13,43,17.00
2010,07,03,13,44,17.10
2010,07,03,13,45,17.10
2010,07,03,13,46,17.20
2010,07,03,13,47,17.20
2010,07,03,13,48,17.30
2010,07,03,13,49,17.30
2010,07,03,13,50,17.30
2010,07,03,13,51,17.40
2010,07,03,13,52,17.40
2010,07,03,13,53,17.40
2010,07,03,13,54,17.40
2010,07,03,13,55,17.50
2010,07,03,13,56,17.60
2010,07,03,13,57,17.70
2010,07,03,13,58,17.70
2010,07,03,13,59,17.70
2010,07,03,14,00,17.60
2010,07,03,14,01,17.60
2010,07,03,14,02,17.60
2010,07,03,14,03,17.70
2010,07,03,14,04,17.70
2010,07,03,14,05,17.70
2010,07,03,14,06,17.70
2010,07,03,14,07,17.70
2010,07,03,14,08,17.70
2010,07,03,14,09,17.70
2010,07,03,14,10,17.70
2010,07,03,14,11,17.70
2010,07,03,14,12,17.70
2010,07,03,14,13,17.80
2010,07,03,14,14,17.80
2010,07,03,14,15,18.00
2010,07,03,14,16,18.10
2010,07,03,14,17,18.10
2010,07,03,14,18,18.10
2010,07,03,14,19,18.20
2010,07,03,14,20,18.20
2010,07,03,14,21,18.20
2010,07,03,14,22,18.30
2010,07,03,14,23,18.40
2010,07,03,14,24,18.50
2010,07,03,14,25,18.50
2010,07,03,14,26,18.40
2010,07,03,14,27,18.30
2010,07,03,14,28,18.20
2010,07,03,14,29,18.10
2010,07,03,14,30,18.00
2010,07,03,14,31,18.00
2010,07,03,14,32,18.00
2010,07,03,14,33,18.00
2010,07,03,14,34,18.00
2010,07,03,14,35,18.20
2010,07,03,14,36,18.30
2010,07,03,14,37,18.40
2010,07,03,14,38,18.50
2010,07,03,14,39,18.60
2010,07,03,14,40,18.60
2010,07,03,14,41,18.60
2010,07,03,14,42,18.70
2010,07,03,14,43,18.70
2010,07,03,14,44,18.60
2010,07,03,14,45,18.50
2010,07,03,14,46,18.30
2010,07,03,14,47,18.20
2010,07,03,14,48,18.10
2010,07,03,14,49,18.10
2010,07,03,14,50,18.00
2010,07,03,14,51,18.00
2010,07,03,14,52,18.00
2010,07,03,14,53,17.90
2010,07,03,14,54,17.90
2010,07,03,14,55,17.90
2010,07,03,14,56,17.80
2010,07,03,14,57,17.80
2010,07,03,14,58,17.90
2010,07,03,14,59,18.00
2010,07,03,15,00,18.20
2010,07,03,15,01,18.30
2010,07,03,15,02,18.30
2010,07,03,15,03,18.30
2010,07,03,15,04,18.30
2010,07,03,15,05,18.40
2010,07,03,15,06,18.50
2010,07,03,15,07,18.50
2010,07,03,15,08,18.60
2010,07,03,15,09,18.60
2010,07,03,15,10,18.50
2010,07,03,15,11,18.50
2010,07,03,15,12,18.50
2010,07,03,15,13,18.40
2010,07,03,15,14,18.40
2010,07,03,15,15,18.40
2010,07,03,15,16,18.40
2010,07,03,15,17,18.30
2010,07,03,15,18,18.30
2010,07,03,15,19,18.30
2010,07,03,15,20,18.30
2010,07,03,15,21,18.30
2010,07,03,15,22,18.30
2010,07,03,15,23,18.20
2010,07,03,15,24,18.10
2010,07,03,15,25,18.10
2010,07,03,15,26,18.30
2010,07,03,15,27,18.50
2010,07,03,15,28,18.80
2010,07,03,15,29,18.80
2010,07,03,15,30,18.70
2010,07,03,15,31,18.60
2010,07,03,15,32,18.50
2010,07,03,15,33,18.30
2010,07,03,15,34,18.20
2010,07,03,15,35,18.20
2010,07,03,15,36,18.30
2010,07,03,15,37,18.30
2010,07,03,15,38,18.30
2010,07,03,15,39,18.30
2010,07,03,15,40,18.40
2010,07,03,15,41,18.40
2010,07,03,15,42,18.40
2010,07,03,15,43,18.40
2010,07,03,15,44,18.40
2010,07,03,15,45,18.50
2010,07,03,15,46,18.50
2010,07,03,15,47,18.60
2010,07,03,15,48,18.60
2010,07,03,15,49,18.40
2010,07,03,15,50,18.30
2010,07,03,15,51,18.30
2010,07,03,15,52,18.20
2010,07,03,15,53,18.20
2010,07,03,15,54,18.20
2010,07,03,15,55,18.20
2010,07,03,15,56,18.20
2010,07,03,15,57,18.20
2010,07,03,15,58,18.30
2010,07,03,15,59,18.30
2010,07,03,16,00,18.30
2010,07,03,16,01,18.20
2010,07,03,16,02,18.20
2010,07,03,16,03,18.20
2010,07,03,16,04,18.20
2010,07,03,16,05,18.20
2010,07,03,16,06,18.30
2010,07,03,16,07,18.30
2010,07,03,16,08,18.30
2010,07,03,16,09,18.30
2010,07,03,16,10,18.20
2010,07,03,16,11,18.20
2010,07,03,16,12,18.30
2010,07,03,16,13,18.20
2010,07,03,16,14,18.30
2010,07,03,16,15,18.30
2010,07,03,16,16,18.30
2010,07,03,16,17,18.30
2010,07,03,16,18,18.30
2010,07,03,16,19,18.30
2010,07,03,16,20,18.30
2010,07,03,16,21,18.30
2010,07,03,16,22,18.40
2010,07,03,16,23,18.50
2010,07,03,16,24,18.60
2010,07,03,16,25,18.70
2010,07,03,16,26,18.70
2010,07,03,16,27,18.80
2010,07,03,16,28,18.80
2010,07,03,16,29,18.80
2010,07,03,16,30,18.80
2010,07,03,16,31,18.80
2010,07,03,16,32,18.80
2010,07,03,16,33,18.80
2010,07,03,16,34,18.80
2010,07,03,16,35,18.80
2010,07,03,16,36,18.90
2010,07,03,16,37,18.90
2010,07,03,16,38,18.80
2010,07,03,16,39,18.80
2010,07,03,16,40,18.70
2010,07,03,16,41,18.60
2010,07,03,16,42,18.60
2010,07,03,16,43,18.60
2010,07,03,16,44,18.60
2010,07,03,16,45,18.70
2010,07,03,16,46,18.80
2010,07,03,16,47,18.90
2010,07,03,16,48,18.90
2010,07,03,16,49,19.00
2010,07,03,16,50,19.00
2010,07,03,16,51,19.10
2010,07,03,16,52,19.10
2010,07,03,16,53,19.00
2010,07,03,16,54,18.90
2010,07,03,16,55,18.90
2010,07,03,16,56,19.00
2010,07,03,16,57,19.00
2010,07,03,16,58,18.90
2010,07,03,16,59,18.70
2010,07,03,17,00,18.60
2010,07,03,17,01,18.70
2010,07,03,17,02,18.70
2010,07,03,17,03,18.80
2010,07,03,17,04,18.80
2010,07,03,17,05,18.80
2010,07,03,17,06,18.90
2010,07,03,17,07,18.90
2010,07,03,17,08,18.90
2010,07,03,17,09,18.90
2010,07,03,17,10,18.90
2010,07,03,17,11,18.90
2010,07,03,17,12,18.90
2010,07,03,17,13,18.90
2010,07,03,17,14,18.80
2010,07,03,17,15,18.70
2010,07,03,17,16,18.60
2010,07,03,17,17,18.50
2010,07,03,17,18,18.40
2010,07,03,17,19,18.40